Погода в Будогощи

Россия / Санкт-Петербург и Ленинградская область     59°17′08″N   32°26′46″E
темп.,
°C
ветер,
м/с
пор.,
м/с
влажн.,
%
обл.,
%
осадки,
мм/ч
давл.,
гПа
погр.,
м
31 июля, сб
сб3100:00+15ю3117454 0.0 1000237
03:00+15ю4127666 0.1 998341
06:00+13ю4139441 1.5 997764
09:00+15юз51188100 1.8 9971153
12:00+20зюз7116118 0.7 9971705
15:00+22з5114893 1.4 9992169
18:00+23з4114012 0.0 10002399
21:00+17зюз236292 0.0 100256
1 августа, вс
вс100:00+15ююз277550 0.0 1003141
03:00+14ююз3898100 0.0 1004234
06:00+15ююз3894100 0.0 1004256
09:00+21ююз47637 0.0 1004660
12:00+21ююз6960100 0.4 1003896
15:00+22юз59735 1.6 10031287
18:00+18юз24775 1.1 1003112
21:00+17зюз2584100 1.3 100383
2 августа, пн
пн200:00+15юз298893 0.0 1005210
03:00+14юз2994100 0.0 1005229
06:00+14юз288940 0.0 1006253
09:00+20ююз2563100 0.0 1006722
12:00+22ююз2361100 0.5 10051222
15:00+17ююз3794100 3.0 1004343
18:00+15с2399100 12.9 1001220
21:00+15ссз3799100 22.1 999413
3 августа, вт
вт300:00+15зсз4999100 4.9 998543
03:00+15з3998100 5.6 999461
06:00+15зюз379892 0.1 1000283
09:00+17з488517 0.2 1002674
12:00+21зюз575079 0.0 10021674
15:00+20зюз576433 0.8 10041063
18:00+17з3876100 1.1 1005491
21:00+13з28868 1.3 1007169
4 августа, ср
ср400:00+11зюз29940 0.0 1009226
03:00+11з2896100 0.1 1010261
06:00+13з2693100 0.1 1011228
09:00+14зсз1379100 0.1 1014203
12:00+20зсз13437 0.0 10151648
15:00+17з2357100 0.0 101666
18:00+19зюз124671 0.0 1016826
21:00+14ю116867 0.0 101711